N8821H RJOO-RJAA

Flight info

Callsign N8821H
Flight time 1h 13m
Altitude 25000
Route ASUKA4 SHTLE Y79 GUPER Y81 RUTAS
Aircraft HDJT/L-V/N

Departure

Time 2026-05-04 00:30
Airport Osaka Itami International Airport (RJOO)

Arrival

Time 2026-05-04 01:43
Airport Narita International Airport (RJAA)
Time Latitude Longitude Altitude Speed Heading
2026-05-04 00:14 34.78852 135.44159 44 ft 0 kts 59°
2026-05-04 00:24 34.78853 135.44161 44 ft 1 kts 59°
2026-05-04 00:24 34.78832 135.44187 44 ft 8 kts 188°
2026-05-04 00:24 34.78776 135.44162 44 ft 9 kts 205°
2026-05-04 00:25 34.78719 135.44158 44 ft 9 kts 146°
2026-05-04 00:25 34.78674 135.44208 44 ft 9 kts 136°
2026-05-04 00:25 34.78632 135.44261 44 ft 9 kts 134°
2026-05-04 00:25 34.78587 135.44314 44 ft 9 kts 144°
2026-05-04 00:26 34.78535 135.44359 44 ft 9 kts 145°
2026-05-04 00:26 34.78472 135.44374 44 ft 10 kts 178°
2026-05-04 00:26 34.78417 135.44404 43 ft 8 kts 152°
2026-05-04 00:26 34.78383 135.44409 43 ft 0 kts 179°
2026-05-04 00:28 34.78367 135.44409 42 ft 5 kts 179°
2026-05-04 00:28 34.78317 135.44407 40 ft 9 kts 200°
2026-05-04 00:29 34.78305 135.44344 39 ft 9 kts 313°
2026-05-04 00:29 34.78470 135.44146 39 ft 70 kts 316°
2026-05-04 00:29 34.79033 135.43476 48 ft 147 kts 313°
2026-05-04 00:29 34.79836 135.42550 387 ft 171 kts 313°
2026-05-04 00:30 34.80754 135.41463 787 ft 192 kts 307°
2026-05-04 00:30 34.81255 135.40008 1269 ft 189 kts 271°
2026-05-04 00:30 34.80856 135.38512 1765 ft 197 kts 235°
2026-05-04 00:30 34.79727 135.37486 2271 ft 214 kts 208°
2026-05-04 00:31 34.78190 135.37340 2786 ft 235 kts 174°
2026-05-04 00:31 34.76701 135.38290 3302 ft 254 kts 142°
2026-05-04 00:31 34.75739 135.40141 3832 ft 267 kts 109°
2026-05-04 00:31 34.75621 135.42398 4363 ft 273 kts 78°
2026-05-04 00:32 34.76389 135.44478 4897 ft 270 kts 47°
2026-05-04 00:32 34.77759 135.46015 5427 ft 268 kts 33°
2026-05-04 00:32 34.79167 135.47533 5961 ft 275 kts 46°
2026-05-04 00:32 34.80035 135.49613 6481 ft 280 kts 79°
2026-05-04 00:33 34.80033 135.51948 6994 ft 275 kts 104°
2026-05-04 00:33 34.79536 135.56663 7899 ft 289 kts 98°
2026-05-04 00:33 34.79440 135.59128 8358 ft 294 kts 97°
2026-05-04 00:34 34.79314 135.61623 8826 ft 298 kts 99°
2026-05-04 00:34 34.79146 135.64148 9296 ft 301 kts 100°
2026-05-04 00:34 34.78983 135.66709 9740 ft 306 kts 99°
2026-05-04 00:34 34.78831 135.69314 10112 ft 312 kts 99°
2026-05-04 00:35 34.78674 135.71974 10469 ft 318 kts 100°
2026-05-04 00:35 34.78510 135.74672 10827 ft 322 kts 99°
2026-05-04 00:35 34.78340 135.77405 11193 ft 326 kts 100°
2026-05-04 00:35 34.78170 135.80176 11564 ft 331 kts 101°
2026-05-04 00:36 34.77999 135.82986 11938 ft 336 kts 101°
2026-05-04 00:36 34.77823 135.85841 12311 ft 340 kts 101°
2026-05-04 00:36 34.77644 135.88732 12693 ft 345 kts 102°
2026-05-04 00:36 34.77463 135.91651 13062 ft 349 kts 102°
2026-05-04 00:37 34.77278 135.94621 13428 ft 353 kts 103°
2026-05-04 00:37 34.77094 135.97602 13794 ft 355 kts 102°
2026-05-04 00:37 34.76902 136.00609 14136 ft 358 kts 102°
2026-05-04 00:37 34.76776 136.03646 14481 ft 364 kts 94°
2026-05-04 00:38 34.77007 136.06733 14837 ft 368 kts 90°
2026-05-04 00:38 34.77243 136.09837 15150 ft 370 kts 91°
2026-05-04 00:38 34.77448 136.12971 15392 ft 375 kts 92°
2026-05-04 00:38 34.77666 136.16110 15633 ft 380 kts 91°
2026-05-04 00:39 34.77908 136.19330 15884 ft 384 kts 91°
2026-05-04 00:39 34.78145 136.22578 16132 ft 388 kts 92°
2026-05-04 00:39 34.78374 136.25864 16370 ft 392 kts 92°
2026-05-04 00:39 34.78606 136.29170 16624 ft 394 kts 92°
2026-05-04 00:40 34.78842 136.32500 16877 ft 396 kts 92°
2026-05-04 00:40 34.79082 136.35848 17134 ft 399 kts 92°
2026-05-04 00:40 34.79321 136.39221 17350 ft 400 kts 91°
2026-05-04 00:40 34.79554 136.42592 17601 ft 400 kts 92°
2026-05-04 00:41 34.79785 136.45964 17863 ft 400 kts 92°
2026-05-04 00:41 34.80021 136.49329 18108 ft 399 kts 92°
2026-05-04 00:41 34.80255 136.52690 18330 ft 398 kts 92°
2026-05-04 00:41 34.80487 136.56090 18558 ft 398 kts 92°
2026-05-04 00:42 34.80713 136.59418 18795 ft 403 kts 92°
2026-05-04 00:42 34.80945 136.62828 19023 ft 406 kts 92°
2026-05-04 00:42 34.81181 136.66266 19254 ft 409 kts 92°
2026-05-04 00:42 34.81415 136.69727 19486 ft 412 kts 92°
2026-05-04 00:43 34.81651 136.73214 19718 ft 414 kts 92°
2026-05-04 00:43 34.81888 136.76718 19960 ft 416 kts 92°
2026-05-04 00:43 34.82120 136.80238 20206 ft 420 kts 92°
2026-05-04 00:43 34.82355 136.83805 20448 ft 426 kts 92°
2026-05-04 00:44 34.82597 136.87423 20660 ft 431 kts 92°
2026-05-04 00:44 34.82729 136.91061 20903 ft 428 kts 100°
2026-05-04 00:44 34.82380 136.94621 21162 ft 419 kts 112°
2026-05-04 00:44 34.81556 136.97979 21423 ft 410 kts 123°
2026-05-04 00:45 34.80348 137.01065 21677 ft 400 kts 132°
2026-05-04 00:45 34.79001 137.04036 21932 ft 403 kts 131°
2026-05-04 00:45 34.77667 137.07046 22193 ft 406 kts 131°
2026-05-04 00:45 34.76340 137.10083 22453 ft 407 kts 131°
2026-05-04 00:46 34.74997 137.13116 22676 ft 408 kts 131°
2026-05-04 00:46 34.73641 137.16152 22938 ft 409 kts 131°
2026-05-04 00:46 34.72286 137.19199 23200 ft 410 kts 131°
2026-05-04 00:46 34.70933 137.22253 23439 ft 411 kts 131°
2026-05-04 00:47 34.69572 137.25312 23655 ft 411 kts 131°
2026-05-04 00:47 34.68211 137.28363 23876 ft 411 kts 131°
2026-05-04 00:47 34.66850 137.31416 24098 ft 410 kts 131°
2026-05-04 00:47 34.65494 137.34459 24319 ft 410 kts 131°
2026-05-04 00:48 34.64149 137.37465 24545 ft 411 kts 131°
2026-05-04 00:48 34.62779 137.40524 24723 ft 415 kts 131°
2026-05-04 00:48 34.61392 137.43618 24724 ft 419 kts 131°
2026-05-04 00:48 34.60005 137.46726 24723 ft 419 kts 131°
2026-05-04 00:49 34.58619 137.49829 24721 ft 418 kts 131°
2026-05-04 00:49 34.57227 137.52925 24721 ft 418 kts 131°
2026-05-04 00:49 34.55836 137.56018 24689 ft 417 kts 131°
2026-05-04 00:49 34.54453 137.59101 24724 ft 416 kts 131°
2026-05-04 00:50 34.53010 137.62121 24729 ft 413 kts 134°
2026-05-04 00:50 34.51548 137.65115 24729 ft 413 kts 134°
2026-05-04 00:50 34.50091 137.68121 24729 ft 414 kts 133°
2026-05-04 00:50 34.48636 137.71129 24728 ft 414 kts 133°
2026-05-04 00:51 34.47176 137.74133 24734 ft 414 kts 134°
2026-05-04 00:51 34.45714 137.77134 24734 ft 414 kts 134°
2026-05-04 00:51 34.44255 137.80133 24726 ft 413 kts 133°
2026-05-04 00:51 34.42796 137.83130 24728 ft 413 kts 133°
2026-05-04 00:52 34.41335 137.86127 24728 ft 413 kts 133°
2026-05-04 00:52 34.39872 137.89124 24722 ft 414 kts 133°
2026-05-04 00:52 34.38406 137.92124 24730 ft 414 kts 133°
2026-05-04 00:52 34.36940 137.95124 24730 ft 414 kts 133°
2026-05-04 00:53 34.35474 137.98121 24724 ft 414 kts 133°
2026-05-04 00:53 34.34005 138.01114 24729 ft 412 kts 134°
2026-05-04 00:53 34.32369 138.03880 24730 ft 399 kts 142°
2026-05-04 00:53 34.30618 138.06487 24733 ft 399 kts 142°
2026-05-04 00:54 34.28888 138.09121 24733 ft 400 kts 141°
2026-05-04 00:54 34.27161 138.11760 24734 ft 400 kts 142°
2026-05-04 00:54 34.25422 138.14382 24737 ft 399 kts 142°
2026-05-04 00:54 34.23680 138.16998 24713 ft 400 kts 142°
2026-05-04 00:55 34.21946 138.19618 24737 ft 399 kts 141°
2026-05-04 00:55 34.20211 138.22240 24743 ft 399 kts 141°
2026-05-04 00:55 34.18474 138.24856 24739 ft 399 kts 141°
2026-05-04 00:55 34.16741 138.27463 24741 ft 398 kts 141°
2026-05-04 00:56 34.15006 138.30073 24742 ft 398 kts 141°
2026-05-04 00:56 34.13272 138.32679 24741 ft 398 kts 141°
2026-05-04 00:56 34.11537 138.35285 24727 ft 398 kts 141°
2026-05-04 00:56 34.09805 138.37885 24745 ft 397 kts 141°
2026-05-04 00:57 34.08072 138.40482 24739 ft 397 kts 141°
2026-05-04 00:57 34.06340 138.43078 24744 ft 397 kts 141°
2026-05-04 00:57 34.04606 138.45674 24744 ft 397 kts 141°
2026-05-04 00:57 34.02874 138.48265 24738 ft 397 kts 141°
2026-05-04 00:58 34.01142 138.50855 24745 ft 397 kts 141°
2026-05-04 00:58 33.99407 138.53447 24718 ft 397 kts 141°
2026-05-04 00:58 33.97678 138.56031 24744 ft 396 kts 141°
2026-05-04 00:58 33.95949 138.58609 24751 ft 396 kts 141°
2026-05-04 00:59 33.94241 138.61155 24756 ft 396 kts 141°
2026-05-04 00:59 33.92511 138.63733 24750 ft 396 kts 141°
2026-05-04 00:59 33.90784 138.66306 24747 ft 395 kts 141°
2026-05-04 00:59 33.89055 138.68878 24744 ft 395 kts 141°
2026-05-04 01:00 33.87329 138.71443 24748 ft 395 kts 141°
2026-05-04 01:00 33.85604 138.74006 24753 ft 393 kts 141°
2026-05-04 01:00 33.83860 138.76597 24753 ft 393 kts 141°
2026-05-04 01:00 33.82154 138.79171 24753 ft 397 kts 137°
2026-05-04 01:01 33.80704 138.82002 24755 ft 409 kts 128°
2026-05-04 01:01 33.79562 138.85236 24757 ft 421 kts 118°
2026-05-04 01:01 33.78848 138.88637 24754 ft 431 kts 108°
2026-05-04 01:01 33.78573 138.92308 24757 ft 440 kts 97°
2026-05-04 01:02 33.78790 138.95948 24760 ft 447 kts 86°
2026-05-04 01:02 33.79514 138.99601 24764 ft 452 kts 74°
2026-05-04 01:02 33.80738 139.03089 24767 ft 454 kts 63°
2026-05-04 01:02 33.82342 139.06357 24767 ft 454 kts 59°
2026-05-04 01:03 33.83979 139.09611 24759 ft 455 kts 59°
2026-05-04 01:03 33.85604 139.12875 24762 ft 454 kts 59°
2026-05-04 01:03 33.87229 139.16135 24763 ft 454 kts 59°
2026-05-04 01:03 33.88860 139.19390 24764 ft 454 kts 59°
2026-05-04 01:04 33.90489 139.22648 24763 ft 454 kts 59°
2026-05-04 01:04 33.92113 139.25913 24764 ft 454 kts 59°
2026-05-04 01:04 33.93738 139.29179 24764 ft 454 kts 59°
2026-05-04 01:04 33.95363 139.32440 24764 ft 454 kts 59°
2026-05-04 01:05 33.96987 139.35705 24762 ft 454 kts 59°
2026-05-04 01:05 33.98609 139.38974 24756 ft 454 kts 59°
2026-05-04 01:05 34.00230 139.42239 24756 ft 454 kts 59°
2026-05-04 01:05 34.01851 139.45508 24751 ft 454 kts 59°
2026-05-04 01:06 34.03470 139.48777 24751 ft 454 kts 59°
2026-05-04 01:06 34.05092 139.52054 24750 ft 455 kts 59°
2026-05-04 01:06 34.06716 139.55322 24730 ft 454 kts 58°
2026-05-04 01:06 34.08595 139.58377 24732 ft 453 kts 49°
2026-05-04 01:07 34.10584 139.61325 24731 ft 453 kts 50°
2026-05-04 01:07 34.12547 139.64298 24729 ft 453 kts 50°
2026-05-04 01:07 34.14477 139.67233 24729 ft 452 kts 50°
2026-05-04 01:07 34.16447 139.70193 24730 ft 452 kts 50°
2026-05-04 01:08 34.18418 139.73148 24727 ft 452 kts 50°
2026-05-04 01:08 34.20380 139.76116 24725 ft 452 kts 50°
2026-05-04 01:08 34.22338 139.79082 24717 ft 452 kts 50°
2026-05-04 01:08 34.24300 139.82048 24717 ft 451 kts 50°
2026-05-04 01:09 34.26258 139.85006 24717 ft 451 kts 50°
2026-05-04 01:09 34.28215 139.87973 24717 ft 451 kts 50°
2026-05-04 01:09 34.30170 139.90938 24711 ft 451 kts 50°
2026-05-04 01:09 34.32125 139.93903 24711 ft 451 kts 50°
2026-05-04 01:10 34.34079 139.96870 24711 ft 451 kts 50°
2026-05-04 01:10 34.36033 139.99840 24697 ft 451 kts 50°
2026-05-04 01:10 34.37984 140.02806 24697 ft 451 kts 50°
2026-05-04 01:10 34.39934 140.05776 24697 ft 451 kts 50°
2026-05-04 01:11 34.41884 140.08747 24701 ft 451 kts 50°
2026-05-04 01:11 34.43834 140.11720 24709 ft 451 kts 50°
2026-05-04 01:11 34.45778 140.14711 24708 ft 452 kts 53°
2026-05-04 01:11 34.47511 140.17886 24708 ft 452 kts 58°
2026-05-04 01:12 34.49159 140.21140 24489 ft 453 kts 59°
2026-05-04 01:12 34.50243 140.23286 24296 ft 449 kts 58°
2026-05-04 01:12 34.51894 140.26472 24010 ft 444 kts 58°
2026-05-04 01:12 34.53549 140.29628 23724 ft 444 kts 58°
2026-05-04 01:13 34.55188 140.32806 23444 ft 446 kts 59°
2026-05-04 01:13 34.56829 140.36021 23137 ft 448 kts 58°
2026-05-04 01:13 34.58483 140.39234 22763 ft 450 kts 58°
2026-05-04 01:13 34.60145 140.42448 22345 ft 449 kts 58°
2026-05-04 01:14 34.61792 140.45653 21943 ft 447 kts 58°
2026-05-04 01:14 34.63429 140.48850 21545 ft 445 kts 58°
2026-05-04 01:14 34.65064 140.52035 21152 ft 443 kts 58°
2026-05-04 01:14 34.66692 140.55205 20763 ft 442 kts 58°
2026-05-04 01:15 34.68310 140.58367 20375 ft 440 kts 58°
2026-05-04 01:15 34.70088 140.61375 19992 ft 437 kts 46°
2026-05-04 01:15 34.72252 140.63935 19611 ft 432 kts 35°
2026-05-04 01:15 34.74704 140.65986 19243 ft 424 kts 23°
2026-05-04 01:16 34.77343 140.67479 18877 ft 414 kts 12°
2026-05-04 01:16 34.80076 140.68408 18518 ft 402 kts
2026-05-04 01:16 34.82815 140.68829 18154 ft 394 kts 355°
2026-05-04 01:16 34.85542 140.69156 17795 ft 393 kts 355°
2026-05-04 01:17 34.88240 140.69507 17697 ft 384 kts 355°
2026-05-04 01:17 34.90861 140.69849 17680 ft 374 kts 354°
2026-05-04 01:17 34.93424 140.70157 17685 ft 371 kts 354°
2026-05-04 01:17 34.96016 140.70458 17679 ft 377 kts 354°
2026-05-04 01:18 34.98606 140.70786 17668 ft 381 kts 355°
2026-05-04 01:18 35.01249 140.71128 17668 ft 382 kts 355°
2026-05-04 01:18 35.03894 140.71460 17669 ft 383 kts 355°
2026-05-04 01:18 35.06548 140.72084 17682 ft 396 kts
2026-05-04 01:19 35.09155 140.73307 17658 ft 407 kts 19°
2026-05-04 01:19 35.11613 140.75104 17660 ft 415 kts 29°
2026-05-04 01:19 35.13990 140.77099 17659 ft 415 kts 28°
2026-05-04 01:19 35.16383 140.79078 17665 ft 415 kts 28°
2026-05-04 01:20 35.18780 140.81054 17654 ft 416 kts 28°
2026-05-04 01:20 35.21173 140.83046 17656 ft 416 kts 28°
2026-05-04 01:20 35.23567 140.85044 17657 ft 417 kts 28°
2026-05-04 01:20 35.25966 140.87038 17657 ft 417 kts 28°
2026-05-04 01:21 35.28363 140.89031 17596 ft 419 kts 28°
2026-05-04 01:21 35.30778 140.91039 17122 ft 418 kts 28°
2026-05-04 01:21 35.33173 140.93038 16669 ft 414 kts 28°
2026-05-04 01:21 35.35541 140.95018 16239 ft 409 kts 28°
2026-05-04 01:22 35.37881 140.96970 15805 ft 405 kts 28°
2026-05-04 01:22 35.40198 140.98905 15370 ft 402 kts 28°
2026-05-04 01:22 35.42499 141.00830 14928 ft 398 kts 28°
2026-05-04 01:22 35.44779 141.02739 14509 ft 396 kts 28°
2026-05-04 01:23 35.47107 141.04458 14091 ft 385 kts 17°
2026-05-04 01:23 35.49543 141.05584 13685 ft 373 kts
2026-05-04 01:23 35.52037 141.06168 13247 ft 358 kts 354°
2026-05-04 01:23 35.54498 141.06231 12779 ft 341 kts 343°
2026-05-04 01:24 35.56744 141.05874 12336 ft 318 kts 337°
2026-05-04 01:24 35.58894 141.05444 11905 ft 312 kts 337°
2026-05-04 01:24 35.61041 141.05019 11471 ft 312 kts 338°
2026-05-04 01:24 35.63186 141.04600 11036 ft 312 kts 338°
2026-05-04 01:25 35.65325 141.04180 10606 ft 311 kts 338°
2026-05-04 01:25 35.67457 141.03762 10173 ft 310 kts 338°
2026-05-04 01:25 35.69593 141.03346 10077 ft 303 kts 338°
2026-05-04 01:25 35.71631 141.02940 10075 ft 297 kts 336°
2026-05-04 01:26 35.73558 141.02239 9925 ft 282 kts 324°
2026-05-04 01:26 35.75265 141.01176 9645 ft 269 kts 314°
2026-05-04 01:26 35.76735 140.99843 9378 ft 257 kts 305°
2026-05-04 01:26 35.77960 140.98307 9073 ft 246 kts 297°
2026-05-04 01:27 35.78940 140.96626 8758 ft 238 kts 289°
2026-05-04 01:27 35.79750 140.94867 8457 ft 236 kts 288°
2026-05-04 01:27 35.80569 140.93117 8159 ft 236 kts 289°
2026-05-04 01:27 35.81391 140.91372 7863 ft 235 kts 289°
2026-05-04 01:28 35.82205 140.89628 7573 ft 235 kts 288°
2026-05-04 01:28 35.83015 140.87889 7346 ft 234 kts 288°
2026-05-04 01:28 35.83820 140.86150 7118 ft 233 kts 289°
2026-05-04 01:28 35.84627 140.84419 6903 ft 233 kts 289°
2026-05-04 01:29 35.85434 140.82700 6693 ft 231 kts 289°
2026-05-04 01:29 35.86233 140.80990 6485 ft 229 kts 289°
2026-05-04 01:29 35.87024 140.79287 6268 ft 228 kts 289°
2026-05-04 01:29 35.87810 140.77592 6057 ft 228 kts 290°
2026-05-04 01:30 35.88591 140.75914 6023 ft 223 kts 290°
2026-05-04 01:30 35.89352 140.74277 6021 ft 218 kts 290°
2026-05-04 01:30 35.90105 140.72648 6020 ft 217 kts 290°
2026-05-04 01:30 35.90851 140.71043 6018 ft 216 kts 290°
2026-05-04 01:31 35.91600 140.69428 6020 ft 218 kts 290°
2026-05-04 01:31 35.92352 140.67806 6012 ft 218 kts 290°
2026-05-04 01:31 35.93107 140.66179 6012 ft 219 kts 290°
2026-05-04 01:31 35.93861 140.64550 6017 ft 219 kts 290°
2026-05-04 01:32 35.94618 140.62916 6016 ft 220 kts 291°
2026-05-04 01:32 35.95379 140.61270 6016 ft 221 kts 291°
2026-05-04 01:32 35.96145 140.59615 6012 ft 222 kts 291°
2026-05-04 01:32 35.96912 140.57958 6013 ft 222 kts 291°
2026-05-04 01:33 35.97675 140.56308 6013 ft 221 kts 291°
2026-05-04 01:33 35.98346 140.54653 6014 ft 215 kts 282°
2026-05-04 01:33 35.98751 140.52898 6013 ft 211 kts 276°
2026-05-04 01:33 35.99107 140.51109 5772 ft 221 kts 277°
2026-05-04 01:34 35.99495 140.49254 5459 ft 225 kts 277°
2026-05-04 01:34 35.99884 140.47389 5141 ft 221 kts 277°
2026-05-04 01:34 36.00255 140.45573 4900 ft 219 kts 276°
2026-05-04 01:34 36.00621 140.43712 4655 ft 226 kts 277°
2026-05-04 01:35 36.01025 140.41820 4423 ft 231 kts 278°
2026-05-04 01:35 36.01435 140.39899 4150 ft 230 kts 276°
2026-05-04 01:35 36.01790 140.37995 3903 ft 226 kts 276°
2026-05-04 01:35 36.02164 140.36128 3655 ft 223 kts 277°
2026-05-04 01:36 36.02545 140.34282 3411 ft 221 kts 277°
2026-05-04 01:36 36.02922 140.32426 3171 ft 224 kts 277°
2026-05-04 01:36 36.03303 140.30559 2999 ft 222 kts 277°
2026-05-04 01:36 36.03618 140.28741 2998 ft 210 kts 269°
2026-05-04 01:37 36.03575 140.26994 2998 ft 198 kts 253°
2026-05-04 01:37 36.03005 140.25503 2997 ft 190 kts 232°
2026-05-04 01:37 36.02027 140.24453 2996 ft 187 kts 212°
2026-05-04 01:37 36.00788 140.23972 3003 ft 188 kts 192°
2026-05-04 01:38 35.99479 140.24151 3001 ft 196 kts 171°
2026-05-04 01:38 35.98250 140.24944 3004 ft 201 kts 158°
2026-05-04 01:38 35.97025 140.25758 3001 ft 198 kts 164°
2026-05-04 01:38 35.95797 140.26556 3001 ft 201 kts 160°
2026-05-04 01:39 35.94599 140.27429 3000 ft 198 kts 159°
2026-05-04 01:39 35.93446 140.28292 2944 ft 190 kts 160°
2026-05-04 01:39 35.92293 140.29112 2732 ft 193 kts 159°
2026-05-04 01:39 35.91137 140.29983 2480 ft 196 kts 158°
2026-05-04 01:40 35.89967 140.30848 2219 ft 194 kts 159°
2026-05-04 01:40 35.88810 140.31690 1970 ft 193 kts 156°
2026-05-04 01:40 35.87660 140.32548 1717 ft 192 kts 157°
2026-05-04 01:40 35.86591 140.33334 1480 ft 171 kts 157°
2026-05-04 01:41 35.85601 140.34054 1256 ft 161 kts 159°
2026-05-04 01:41 35.84667 140.34750 1055 ft 154 kts 157°
2026-05-04 01:41 35.83766 140.35416 870 ft 148 kts 160°
2026-05-04 01:41 35.82874 140.36047 698 ft 147 kts 159°
2026-05-04 01:42 35.82015 140.36687 525 ft 143 kts 158°
2026-05-04 01:42 35.81174 140.37302 365 ft 133 kts 163°
2026-05-04 01:42 35.80434 140.37890 285 ft 130 kts 154°
2026-05-04 01:42 35.79693 140.38413 148 ft 112 kts 163°
2026-05-04 01:43 35.79111 140.38796 135 ft 63 kts 149°
2026-05-04 01:43 35.78858 140.38988 133 ft 20 kts 150°
2026-05-04 01:43 35.78757 140.39049 133 ft 16 kts 167°
2026-05-04 01:43 35.78658 140.39073 134 ft 13 kts 170°
2026-05-04 01:44 35.78576 140.39086 136 ft 11 kts 170°
2026-05-04 01:44 35.78509 140.39103 137 ft 9 kts 167°
2026-05-04 01:44 35.78448 140.39120 137 ft 9 kts 167°
2026-05-04 01:44 35.78388 140.39136 138 ft 9 kts 167°
2026-05-04 01:45 35.78330 140.39152 138 ft 8 kts 167°
2026-05-04 01:45 35.78268 140.39169 138 ft 11 kts 167°
2026-05-04 01:45 35.78108 140.39142 138 ft 12 kts 224°
2026-05-04 01:46 35.78043 140.39132 138 ft 9 kts 156°
2026-05-04 01:46 35.77985 140.39169 138 ft 9 kts 141°
2026-05-04 01:46 35.77950 140.39235 138 ft 10 kts 117°
2026-05-04 01:46 35.77919 140.39310 138 ft 10 kts 117°
2026-05-04 01:47 35.77886 140.39390 138 ft 11 kts 117°
2026-05-04 01:47 35.77848 140.39473 138 ft 11 kts 132°
2026-05-04 01:47 35.77783 140.39531 138 ft 12 kts 149°
2026-05-04 01:47 35.77712 140.39584 138 ft 12 kts 149°
2026-05-04 01:48 35.77638 140.39638 139 ft 13 kts 150°
2026-05-04 01:48 35.77556 140.39658 139 ft 12 kts 204°
2026-05-04 01:48 35.77482 140.39626 139 ft 11 kts 160°
2026-05-04 01:48 35.77412 140.39674 139 ft 12 kts 149°
2026-05-04 01:49 35.77342 140.39725 139 ft 12 kts 149°
2026-05-04 01:49 35.77269 140.39779 139 ft 12 kts 149°
2026-05-04 01:49 35.77193 140.39833 139 ft 13 kts 150°
2026-05-04 01:49 35.77112 140.39878 139 ft 13 kts 175°
2026-05-04 01:50 35.77026 140.39855 139 ft 13 kts 202°
2026-05-04 01:50 35.76946 140.39813 139 ft 12 kts 204°
2026-05-04 01:50 35.76865 140.39786 139 ft 12 kts 182°
2026-05-04 01:50 35.76786 140.39765 139 ft 12 kts 210°
2026-05-04 01:51 35.76722 140.39707 139 ft 11 kts 218°
2026-05-04 01:51 35.76659 140.39651 139 ft 12 kts 207°
2026-05-04 01:51 35.76554 140.39591 139 ft 17 kts 204°
2026-05-04 01:51 35.76445 140.39533 139 ft 19 kts 204°
2026-05-04 01:52 35.76303 140.39454 139 ft 26 kts 204°
2026-05-04 01:52 35.76136 140.39359 139 ft 26 kts 204°
2026-05-04 01:52 35.75975 140.39269 139 ft 24 kts 204°
2026-05-04 01:52 35.75844 140.39186 139 ft 14 kts 216°
2026-05-04 01:53 35.75792 140.39104 139 ft 14 kts 239°
2026-05-04 01:53 35.75741 140.38995 141 ft 15 kts 240°
2026-05-04 01:53 35.75717 140.38889 141 ft 12 kts 289°
2026-05-04 01:53 35.75746 140.38791 141 ft 12 kts 252°
2026-05-04 01:54 35.75707 140.38700 141 ft 12 kts 242°
2026-05-04 01:54 35.75702 140.38600 141 ft 12 kts 299°
2026-05-04 01:54 35.75767 140.38536 141 ft 14 kts 329°
2026-05-04 01:54 35.75864 140.38466 141 ft 19 kts 328°
2026-05-04 01:55 35.75992 140.38373 141 ft 24 kts 330°
2026-05-04 01:55 35.76148 140.38266 140 ft 26 kts 330°
2026-05-04 01:55 35.76306 140.38150 140 ft 27 kts 329°
2026-05-04 01:55 35.76435 140.38055 140 ft 9 kts 319°
2026-05-04 01:56 35.76449 140.37981 140 ft 9 kts 270°
2026-05-04 01:56 35.76482 140.37910 140 ft 11 kts 323°
2026-05-04 01:56 35.76576 140.37839 140 ft 21 kts 329°
2026-05-04 01:56 35.76735 140.37724 140 ft 32 kts 330°
2026-05-04 01:57 35.76935 140.37583 140 ft 33 kts 330°
2026-05-04 01:57 35.77128 140.37441 139 ft 26 kts 329°
2026-05-04 01:57 35.77227 140.37375 139 ft 12 kts 352°
2026-05-04 01:57 35.77280 140.37437 140 ft 11 kts 60°
2026-05-04 01:58 35.77302 140.37482 140 ft 0 kts 58°